HORYU-4

Last updated on Sun Jun 21 2026 00:03:50 GMT+0000 (Coordinated Universal Time)

1 41340U 16012D 26171.37382522 .00528215 11166-3 10448-2 0 9991 2 41340 30.9842 55.5784 0006572 292.5150 67.4817 15.98761555571321
UTC large
Height (km)
Speed (km/s)
/
Latitude / Longitude
Inclination (degrees)
Orbital Period (minutes)
Azimuth
Elevation
Range (km)
Doppler Factor

Next 0 passes for location: London (51.5072 / 0.1276)

No passes found over London.
HORYU-4